PLEIADES 1B

Last updated on Mon Jun 22 2026 00:02:51 GMT+0000 (Coordinated Universal Time)

1 39019U 12068A 26172.47002948 .00000522 00000+0 12215-3 0 9993 2 39019 98.1941 247.4631 0001688 90.3028 269.8364 14.58563736721475
UTC large
Height (km)
Speed (km/s)
/
Latitude / Longitude
Inclination (degrees)
Orbital Period (minutes)
Azimuth
Elevation
Range (km)
Doppler Factor

Next 0 passes for location: London (51.5072 / 0.1276)

No passes found over London.
PLEIADES 1B